[[{"header":{"parameterUnit":"m.s-1","parameterCategory":2,"la1":30.2991,"la2":30.254,"lo1":-89.0895,"lo2":-89.0444,"dy":0.0017,"dx":0.0017,"nx":28,"ny":28,"refTime":"2023-10-22T03:00:00:Z","depth":"0","parameterNumber":2,"parameterNumberName":"U-component_of_CURRENTS"},"data":[0,0,0,0,0,0,0,0,0,0,0,0,0,0,0,0,0,0,0,0,0,0,0,0,0,0,0,0,0,0,0,0,0,0,0,0,0,0,0,0,0,0,0,0,0,0,0,0,0,0,0,0,0,0,0,0,0,0,0.2372,0.2372,0,0.2339,0.2338,0.2338,0.2292,0.2292,0.2291,0.2291,0.222,0.2219,0.2217,0,0,0,0,0,0,0,0,0,0,0,0,0,0.2458,0.2456,0.2372,0.2372,0.2371,0.2339,0.2338,0.2338,0.2292,0.2292,0.2291,0.2291,0.2221,0.2219,0.2217,0,0,0,0,0,0,0,0,0,0,0,0,0,0.242,0.2455,0.2372,0.2347,0.2344,0.2339,0.2338,0.2337,0.2293,0.2292,0.2291,0.229,0.2221,0.2219,0.2217,0.2221,0,0,0.2211,0.221,0,0,0,0,0,0,0,0,0.2422,0.2416,0.2351,0.2349,0.2346,0.2321,0.2343,0.2297,0.2293,0.231,0.2291,0.229,0.2253,0.2248,0.2241,0.2217,0.2214,0.2211,0.2209,0.2208,0.2208,0,0,0,0,0,0,0,0.2425,0.2418,0.2356,0.2351,0.2348,0.2359,0.2352,0.2334,0.2284,0.2308,0.2305,0.2306,0.2251,0.2243,0.2239,0.2213,0.2211,0.2209,0.2208,0.2207,0.2239,0.2241,0,0,0,0,0,0,0.2431,0.242,0.2357,0.2356,0.2386,0.2358,0.235,0.2328,0.2284,0.2278,0.2307,0.2304,0.2247,0.2241,0.2236,0.2255,0.2208,0.2207,0.2205,0.2237,0.224,0.2242,0,0,0,0,0,0,0.2432,0.2425,0.2359,0.2391,0.2383,0.2357,0.2333,0.2328,0.232,0.2284,0.2276,0.2305,0.2246,0.2239,0.2231,0.2251,0.2206,0.2204,0.2235,0.2238,0.2241,0.2281,0,0,0,0,0,0,0.2435,0.2425,0.2419,0.239,0.2382,0.2355,0.2334,0.2328,0.2323,0.2319,0.228,0.2273,0.2245,0.2234,0.2229,0.2247,0.2202,0.2232,0.2236,0.224,0.2277,0.2286,0.2293,0,0,0,0,0,0.2437,0.2427,0.2418,0.2411,0.237,0.2356,0.2352,0.233,0.2324,0.2321,0.2304,0.2274,0.2256,0.2233,0.2227,0.2245,0.223,0.2235,0.224,0.2274,0.2284,0.2292,0,0,0,0,0,0,0.2459,0.2421,0.241,0.2387,0.2375,0.2349,0.2349,0.2338,0.2323,0.2325,0.2287,0.2279,0.2288,0.2268,0.2244,0.2273,0.2244,0.2248,0.2273,0.2282,0.2289,0.2335,0.22,0,0,0,0,0,0.2463,0.2444,0.2417,0.2402,0.2397,0.2377,0.2372,0.2361,0.2344,0.2337,0.2307,0.2298,0.2304,0.2291,0.2288,0.2289,0.2326,0.2305,0.2313,0.2319,0.2356,0.244,0.2458,0.2258,0.2258,0.2258,0,0,0.2469,0.2448,0.2437,0.2408,0.2396,0.2387,0.2371,0.2369,0.2368,0.2333,0.232,0.2321,0.2315,0.2324,0.2326,0.2303,0.2393,0.2325,0.233,0.2364,0.2447,0.2466,0.2484,0.2261,0.226,0.226,0,0,0.2469,0.2452,0.2435,0.2426,0.2416,0.2408,0.241,0.2386,0.2383,0.238,0.2371,0.2407,0.2364,0.2393,0.2398,0.2455,0.2438,0.2427,0.2486,0.2565,0.2583,0.2599,0.2657,0.2678,0.242,0.242,0.2421,0,0.248,0.2445,0.2433,0.242,0.2414,0.2417,0.2406,0.2411,0.239,0.2398,0.2383,0.2415,0.242,0.2468,0.2496,0.2476,0.2495,0.2441,0.2576,0.2592,0.2608,0.2664,0.2686,0.2423,0.2423,0.2422,0.2422,0,0.2462,0.2442,0.2437,0.2415,0.2415,0.2411,0.2414,0.2423,0.2426,0.243,0.2476,0.2503,0.2524,0.2537,0.2534,0.2637,0.2606,0.258,0.255,0.2631,0.2684,0.2707,0.2427,0.2426,0.2425,0.2424,0,0,0.2455,0.2427,0.2424,0.2406,0.2411,0.24,0.2429,0.2443,0.246,0.2486,0.2515,0.2592,0.2615,0.263,0.2638,0.2726,0.2865,0.2697,0.27,0.2751,0.3016,0.294,0.2956,0.2836,0.2841,0.2844,0.3003,0,0.244,0.2405,0.2404,0.2383,0.2362,0.2388,0.2403,0.2432,0.2461,0.2492,0.2578,0.2607,0.264,0.2653,0.2756,0.2829,0.2928,0.2824,0.2936,0.294,0.2859,0.2982,0.2848,0.2974,0.3025,0.3029,0.3032,0,0.2411,0.2391,0.236,0.2345,0.234,0.2337,0.2368,0.2386,0.2462,0.2489,0.2571,0.2608,0.2752,0.2759,0.2978,0.2891,0.2981,0.305,0.3056,0.2996,0.2908,0.2906,0.3013,0.2859,0.3067,0.3064,0.3061,0,0.2381,0.2355,0.2325,0.2319,0.2313,0.2314,0.2323,0.2381,0.2397,0.2491,0.2519,0.2665,0.273,0.2889,0.3033,0.3007,0.3255,0.3226,0.3254,0.3247,0.317,0.3148,0.3145,0.3418,0.3418,0.3417,0.3417,0,0.2349,0.232,0.23,0.228,0.2248,0.2271,0.2266,0.2304,0.2369,0.2398,0.2508,0.2567,0.2768,0.2905,0.305,0.3217,0.3273,0.3316,0.3306,0.3175,0.3154,0.3042,0.2986,0.3423,0.3422,0.3421,0.342,0,0.2305,0.2296,0.2248,0.2233,0.2221,0.2197,0.2198,0.2207,0.2283,0.2332,0.2361,0.2515,0.2697,0.2879,0.3131,0.3217,0.3285,0.3432,0.3253,0.322,0.3089,0.3041,0.299,0.292,0.3515,0.3515,0.3514,0,0.2271,0.2243,0.2197,0.216,0.2142,0.2114,0.2098,0.2151,0.2168,0.2298,0.2319,0.2492,0.2607,0.2922,0.3119,0.3353,0.3247,0.3336,0.3296,0.3104,0.3045,0.29,0.2834,0.321,0.3207,0.3205,0.3203,0,0.2205,0.2191,0.2156,0.2079,0.2036,0.1992,0.1979,0.1989,0.2074,0.2129,0.223,0.2334,0.2621,0.2788,0.3054,0.3191,0.3114,0.3292,0.3157,0.2883,0.2666,0.2582,0.3061,0.3181,0.3184,0.3185,0.3186,0.3187,0.2147,0.2105,0.2053,0.1974,0.1922,0.1865,0.1827,0.1861,0.1882,0.1974,0.2116,0.2255,0.249,0.2853,0.2939,0.2962,0.2998,0.2915,0.29,0.279,0.2634,0.3055,0.3108,0.311,0.3111,0.3113,0.3114,0,0.2044,0.2006,0.1944,0.1831,0.1739,0.1751,0.1731,0.1711,0.1727,0.1872,0.1967,0.2197,0.2335,0.2519,0.2649,0.2575,0.2498,0.249,0.2259,0.2244,0.2682,0.2575,0.2433,0.2434,0.2434,0.2434,0.2434,0.2434,0.198,0.1891,0.1858,0.1669,0.16,0.1482,0.1468,0.1481,0.1562,0.1688,0.1816,0.1978,0.2134,0.2206,0.2154,0.2149,0.1973,0.1876,0.1891,0.2174,0.2211,0.2246,0.2129,0.1896,0.1896,0.134,0.1336,0.1332]},{"header":{"parameterUnit":"m.s-1","parameterCategory":2,"la1":30.2991,"la2":30.254,"lo1":-89.0895,"lo2":-89.0444,"dy":0.0017,"dx":0.0017,"nx":28,"ny":28,"refTime":"2023-10-22T03:00:00:Z","depth":"0","parameterNumber":3,"parameterNumberName":"V-component_of_CURRENTS"},"data":[0,0,0,0,0,0,0,0,0,0,0,0,0,0,0,0,0,0,0,0,0,0,0,0,0,0,0,0,0,0,0,0,0,0,0,0,0,0,0,0,0,0,0,0,0,0,0,0,0,0,0,0,0,0,0,0,0,0,0.0334,0.0334,0,0.0263,0.0262,0.0261,0.0201,0.02,0.02,0.02,0.0102,0.01,0.0098,0,0,0,0,0,0,0,0,0,0,0,0,0,0.0362,0.0362,0.0334,0.0334,0.0333,0.0263,0.0262,0.0261,0.0201,0.02,0.02,0.0199,0.0103,0.01,0.0097,0,0,0,0,0,0,0,0,0,0,0,0,0,0.0324,0.0362,0.0334,0.0296,0.0292,0.0264,0.0262,0.0261,0.0201,0.02,0.02,0.0199,0.0104,0.01,0.0097,0.009,0,0,0.0087,0.0086,0,0,0,0,0,0,0,0,0.0327,0.0323,0.0303,0.0299,0.0295,0.0242,0.0236,0.0203,0.0201,0.0233,0.02,0.0199,0.0149,0.0142,0.0126,0.0085,0.0081,0.0087,0.0085,0.0083,0.0082,0,0,0,0,0,0,0,0.033,0.0326,0.0304,0.0302,0.0297,0.0264,0.0258,0.0229,0.0193,0.023,0.0226,0.0223,0.0146,0.013,0.0124,0.008,0.0087,0.0084,0.0082,0.0081,0.0083,0.0084,0,0,0,0,0,0,0.0347,0.0329,0.0306,0.0302,0.0312,0.0265,0.0258,0.0258,0.0194,0.0184,0.0223,0.022,0.0136,0.0128,0.012,0.0165,0.0083,0.008,0.0078,0.0081,0.0083,0.0085,0,0,0,0,0,0,0.0348,0.0346,0.0309,0.0315,0.0308,0.0266,0.0265,0.0257,0.0243,0.0189,0.0178,0.0219,0.0135,0.0125,0.0108,0.0158,0.0079,0.0076,0.0078,0.0081,0.0084,0.0218,0,0,0,0,0,0,0.0349,0.0347,0.0349,0.0317,0.0309,0.03,0.0266,0.0256,0.0243,0.0238,0.0182,0.0172,0.0134,0.0113,0.0105,0.0152,0.0073,0.0076,0.008,0.0083,0.0211,0.0225,0.0237,0,0,0,0,0,0.035,0.0358,0.0349,0.0346,0.0315,0.0301,0.0294,0.0259,0.0244,0.0243,0.0212,0.0174,0.0132,0.0112,0.0101,0.0149,0.0074,0.0078,0.0083,0.0205,0.0222,0.0237,0,0,0,0,0,0,0.0366,0.0352,0.0342,0.0343,0.0329,0.0292,0.0288,0.0268,0.0242,0.024,0.0186,0.0175,0.0188,0.0145,0.0125,0.0163,0.0102,0.0105,0.0199,0.0214,0.0227,0.0284,0.0071,0,0,0,0,0,0.0374,0.0379,0.0359,0.0361,0.0358,0.0326,0.0316,0.0298,0.0273,0.026,0.0222,0.0197,0.0199,0.0186,0.0169,0.0175,0.0164,0.0204,0.0217,0.0228,0.0269,0.0306,0.0328,0.01,0.01,0.01,0,0,0.038,0.0374,0.0375,0.0365,0.035,0.0363,0.0318,0.0314,0.0335,0.0255,0.0263,0.0238,0.0211,0.0231,0.0234,0.02,0.028,0.0234,0.0244,0.0279,0.0314,0.0336,0.0356,0.0103,0.0103,0.0102,0,0,0.0399,0.0393,0.0405,0.0404,0.0396,0.0388,0.0394,0.0367,0.0366,0.0371,0.034,0.0359,0.0313,0.0333,0.0334,0.0411,0.0353,0.0386,0.0493,0.0529,0.0549,0.0566,0.0552,0.0567,0.0388,0.0388,0.0388,0,0.0405,0.0423,0.0405,0.0422,0.0437,0.0409,0.0438,0.0438,0.0411,0.0436,0.0391,0.0414,0.0385,0.0461,0.0489,0.0449,0.0427,0.0434,0.0549,0.0566,0.0582,0.0563,0.0578,0.0395,0.0394,0.0394,0.0393,0,0.0437,0.0455,0.0466,0.0489,0.0502,0.0522,0.0533,0.0549,0.0546,0.0552,0.0612,0.0584,0.0605,0.0602,0.0567,0.0671,0.0604,0.0565,0.0514,0.0613,0.0585,0.0599,0.0405,0.0403,0.04,0.0399,0,0,0.0439,0.0482,0.0485,0.0519,0.0546,0.0564,0.0624,0.0678,0.0734,0.0729,0.0807,0.0835,0.0823,0.0827,0.0792,0.0829,0.0907,0.0745,0.0744,0.074,0.0944,0.086,0.0865,0.0874,0.0878,0.0881,0.087,0,0.0471,0.0526,0.0544,0.0614,0.065,0.0676,0.0737,0.0789,0.082,0.088,0.0914,0.0956,0.0906,0.0915,0.0958,0.0918,0.0952,0.0912,0.0842,0.084,0.0763,0.0883,0.0892,0.0881,0.0882,0.0884,0.0886,0,0.0499,0.0536,0.0607,0.0699,0.0719,0.0763,0.0876,0.0926,0.1019,0.1046,0.1116,0.1109,0.1185,0.1111,0.1145,0.1108,0.1058,0.1022,0.1019,0.0916,0.0784,0.0787,0.0904,0.0766,0.0905,0.0904,0.0902,0,0.0515,0.0589,0.0655,0.068,0.0769,0.0826,0.0883,0.0979,0.1046,0.1149,0.1195,0.1269,0.129,0.1284,0.1208,0.1175,0.1215,0.1151,0.1036,0.1025,0.1013,0.0996,0.1008,0.1203,0.1203,0.1203,0.1203,0,0.055,0.0602,0.0666,0.0701,0.0799,0.0855,0.0973,0.1037,0.1146,0.1244,0.1274,0.1348,0.1334,0.1336,0.1269,0.1195,0.1262,0.1099,0.1048,0.1052,0.1039,0.0898,0.0824,0.1203,0.1203,0.1203,0.1203,0,0.056,0.0599,0.0676,0.077,0.0805,0.0874,0.101,0.1102,0.1183,0.131,0.1344,0.1416,0.1422,0.1377,0.1349,0.1253,0.1129,0.1146,0.1125,0.1073,0.0822,0.0755,0.077,0.0711,0.1035,0.1033,0.1032,0,0.0573,0.0607,0.0706,0.0758,0.0802,0.0909,0.0998,0.1111,0.121,0.1351,0.1419,0.1457,0.151,0.1424,0.1295,0.1181,0.1082,0.1061,0.1028,0.0853,0.0741,0.0727,0.0677,0.1047,0.1046,0.1045,0.1044,0,0.0593,0.062,0.0683,0.0781,0.0872,0.0992,0.112,0.1192,0.1336,0.1428,0.1545,0.1592,0.1524,0.1439,0.1258,0.1162,0.0979,0.1033,0.0898,0.0813,0.0763,0.0663,0.0957,0.1035,0.1036,0.1037,0.1037,0.1038,0.0602,0.0647,0.0725,0.0825,0.0931,0.1072,0.1164,0.1291,0.1432,0.1575,0.1621,0.1706,0.1574,0.1352,0.1172,0.0852,0.0891,0.0758,0.0706,0.0718,0.0644,0.0887,0.087,0.087,0.0869,0.0869,0.0869,0,0.062,0.0682,0.0771,0.0899,0.1013,0.1075,0.1251,0.1334,0.1471,0.1618,0.1714,0.1736,0.1499,0.1252,0.085,0.0592,0.0537,0.0454,0.0463,0.0435,0.0698,0.0675,0.056,0.056,0.0561,0.0561,0.0561,0.0561,0.0639,0.0719,0.0773,0.0948,0.1039,0.1195,0.1291,0.1392,0.1516,0.167,0.1768,0.185,0.1706,0.0994,0.0473,0.0335,0.0164,0.015,0.0048,0.0221,0.0246,0.027,0.0232,0.0027,0.0026,-0.0156,-0.0158,-0.016]}],[{"header":{"parameterUnit":"m.s-1","parameterCategory":2,"la1":30.2991,"la2":30.254,"lo1":-89.0895,"lo2":-89.0444,"dy":0.0017,"dx":0.0017,"nx":28,"ny":28,"refTime":"2023-10-22T03:00:00:Z","depth":"2","parameterNumber":2,"parameterNumberName":"U-component_of_CURRENTS"},"data":[0,0,0,0,0,0,0,0,0,0,0,0,0,0,0,0,0,0,0,0,0,0,0,0,0,0,0,0,0,0,0,0,0,0,0,0,0,0,0,0,0,0,0,0,0,0,0,0,0,0,0,0,0,0,0,0,0,0,0.2121,0.2121,0,0.2127,0.2127,0.2126,0.2124,0.2124,0.2124,0.2124,0.2152,0.2153,0.2154,0,0,0,0,0,0,0,0,0,0,0,0,0,0.2112,0.2112,0.2121,0.2121,0.2122,0.2127,0.2127,0.2126,0.2124,0.2124,0.2124,0.2124,0.2152,0.2153,0.2154,0,0,0,0,0,0,0,0,0,0,0,0,0,0.2114,0.2112,0.2121,0.2123,0.2123,0.2127,0.2127,0.2126,0.2124,0.2124,0.2124,0.2124,0.2152,0.2153,0.2154,0.2157,0,0,0.2157,0.2157,0,0,0,0,0,0,0,0,0.2114,0.2114,0.2122,0.2123,0.2123,0.2127,0.2134,0.2139,0.2124,0.2121,0.2124,0.2124,0.2148,0.2149,0.2146,0.2159,0.216,0.2157,0.2158,0.2158,0.2158,0,0,0,0,0,0,0,0.2114,0.2114,0.2121,0.2123,0.2123,0.2125,0.2125,0.2134,0.2132,0.2121,0.2121,0.2126,0.2148,0.2145,0.2146,0.216,0.2157,0.2158,0.2159,0.2159,0.2219,0.222,0,0,0,0,0,0,0.2118,0.2114,0.2121,0.2121,0.2122,0.2125,0.2125,0.2123,0.2131,0.2133,0.2126,0.2126,0.2143,0.2145,0.2147,0.2187,0.2158,0.2159,0.216,0.2218,0.2219,0.222,0,0,0,0,0,0,0.2117,0.2118,0.212,0.212,0.2121,0.2125,0.2123,0.2124,0.2135,0.2135,0.2137,0.214,0.2143,0.2146,0.217,0.2187,0.2159,0.216,0.2217,0.2219,0.222,0.2244,0,0,0,0,0,0,0.2117,0.2118,0.213,0.212,0.2121,0.213,0.2124,0.2124,0.2138,0.2139,0.2147,0.2149,0.2143,0.2168,0.2171,0.2188,0.2161,0.2216,0.2218,0.2219,0.2242,0.2246,0.225,0,0,0,0,0,0.2117,0.2123,0.213,0.2132,0.2133,0.2131,0.2131,0.2133,0.2139,0.2144,0.2155,0.2149,0.2182,0.217,0.2172,0.219,0.2215,0.2217,0.2219,0.224,0.2246,0.225,0,0,0,0,0,0,0.2131,0.2124,0.2131,0.2138,0.2141,0.2131,0.2141,0.2144,0.2155,0.2163,0.2161,0.2164,0.2191,0.219,0.2177,0.2214,0.2198,0.2201,0.2213,0.2218,0.2222,0.2224,0.2162,0,0,0,0,0,0.214,0.2143,0.2139,0.2151,0.215,0.2151,0.2156,0.2158,0.2162,0.2167,0.2173,0.2185,0.22,0.2209,0.2218,0.2239,0.2263,0.2253,0.2257,0.2261,0.2265,0.2316,0.2325,0.2228,0.2228,0.2228,0,0,0.2152,0.215,0.2154,0.2155,0.2156,0.2158,0.2153,0.2164,0.2173,0.217,0.219,0.2201,0.2209,0.223,0.2243,0.2233,0.2304,0.2263,0.2266,0.2269,0.2319,0.2328,0.2337,0.2229,0.2229,0.2229,0,0,0.2168,0.2172,0.2177,0.2176,0.2183,0.2179,0.2187,0.2185,0.2193,0.221,0.2216,0.2239,0.2253,0.2264,0.2271,0.2304,0.2324,0.2311,0.2331,0.2381,0.2389,0.2397,0.2454,0.2467,0.2312,0.2312,0.2312,0,0.2185,0.2187,0.2181,0.2183,0.2188,0.219,0.2197,0.2201,0.2212,0.2227,0.2221,0.2262,0.2267,0.2302,0.2311,0.2313,0.235,0.231,0.2386,0.2394,0.2401,0.2458,0.2472,0.2313,0.2313,0.2313,0.2313,0,0.2193,0.2204,0.2205,0.2207,0.2212,0.2218,0.2219,0.2234,0.2244,0.2252,0.229,0.2299,0.2328,0.2331,0.2329,0.2386,0.24,0.2386,0.2373,0.2413,0.247,0.2484,0.2315,0.2315,0.2314,0.2314,0,0,0.2205,0.221,0.2214,0.2221,0.2224,0.2226,0.2246,0.2263,0.229,0.23,0.2338,0.2355,0.2373,0.2383,0.2393,0.2424,0.2508,0.243,0.2432,0.2486,0.2637,0.2505,0.2508,0.2513,0.2516,0.2517,0.2662,0,0.2216,0.2226,0.2227,0.2244,0.2246,0.2254,0.2273,0.2293,0.2315,0.2351,0.2369,0.2406,0.239,0.2417,0.245,0.2493,0.2543,0.2471,0.2591,0.2595,0.2472,0.2518,0.2227,0.2318,0.2675,0.2677,0.2679,0,0.2217,0.2226,0.2244,0.2262,0.2266,0.228,0.2317,0.2335,0.2382,0.2404,0.2445,0.2464,0.2519,0.2497,0.26,0.256,0.2609,0.2634,0.264,0.2515,0.2487,0.2334,0.233,0.2702,0.27,0.2698,0.2697,0,0.2217,0.2235,0.2253,0.2256,0.2278,0.2299,0.2316,0.2358,0.238,0.2448,0.2479,0.2542,0.2582,0.2645,0.2697,0.2666,0.2811,0.2775,0.2709,0.2702,0.2473,0.244,0.2864,0.2864,0.2863,0.2863,0.2863,0,0.2212,0.2229,0.2258,0.2265,0.2295,0.2311,0.2351,0.2382,0.2431,0.2466,0.2514,0.2555,0.2622,0.2699,0.2743,0.2768,0.286,0.2723,0.2727,0.2473,0.244,0.2778,0.2766,0.2869,0.2867,0.2866,0.2865,0,0.2206,0.2223,0.2248,0.2283,0.2294,0.2319,0.2354,0.2379,0.2436,0.2489,0.2513,0.259,0.2677,0.2749,0.2859,0.281,0.286,0.2857,0.2555,0.2517,0.2711,0.2699,0.2781,0.2778,0.2775,0.2772,0.277,0,0.2206,0.222,0.2261,0.2272,0.229,0.232,0.2335,0.2379,0.2404,0.2499,0.2523,0.2623,0.2644,0.2744,0.2677,0.2712,0.286,0.2489,0.2345,0.2706,0.2702,0.2695,0.2687,0.208,0.2072,0.2066,0.2061,0,0.2208,0.2232,0.2247,0.227,0.2288,0.2297,0.2326,0.2338,0.2396,0.2432,0.2495,0.2517,0.2534,0.238,0.2386,0.2374,0.2441,0.2359,0.2842,0.2121,0.2048,0.2043,0.2058,0.2006,0.2011,0.2016,0.2019,0.2021,0.2216,0.2224,0.2244,0.2255,0.2272,0.2266,0.225,0.2268,0.2281,0.2235,0.2319,0.2206,0.2169,0.1957,0.1948,0.1932,0.2088,0.1999,0.2017,0.2042,0.191,0.1832,0.1728,0.1731,0.1735,0.1737,0.174,0,0.2198,0.2206,0.2221,0.2216,0.2204,0.2236,0.2229,0.2146,0.2116,0.2015,0.1952,0.1643,0.1486,0.1548,0.1374,0.1363,0.1347,0.1373,0.1328,0.1379,0.1427,0.1264,0.0911,0.091,0.0909,0.0907,0,0,0.2188,0.2174,0.2168,0.2137,0.2145,0.2101,0.2084,0.1933,0.1811,0.1568,0.1399,0.1267,0.1364,0.1058,0.1043,0.0965,0.1173,0.0925,0.1568,0.1558,0.1604,0.1746,0.1548,0,0,0,0,0]},{"header":{"parameterUnit":"m.s-1","parameterCategory":2,"la1":30.2991,"la2":30.254,"lo1":-89.0895,"lo2":-89.0444,"dy":0.0017,"dx":0.0017,"nx":28,"ny":28,"refTime":"2023-10-22T03:00:00:Z","depth":"2","parameterNumber":3,"parameterNumberName":"V-component_of_CURRENTS"},"data":[0,0,0,0,0,0,0,0,0,0,0,0,0,0,0,0,0,0,0,0,0,0,0,0,0,0,0,0,0,0,0,0,0,0,0,0,0,0,0,0,0,0,0,0,0,0,0,0,0,0,0,0,0,0,0,0,0,0,-0.0512,-0.0513,0,-0.0612,-0.0613,-0.0614,-0.0696,-0.0696,-0.0697,-0.0698,-0.0827,-0.083,-0.0833,0,0,0,0,0,0,0,0,0,0,0,0,0,-0.0412,-0.0414,-0.0512,-0.0513,-0.0514,-0.0612,-0.0613,-0.0615,-0.0695,-0.0696,-0.0697,-0.0698,-0.0826,-0.083,-0.0833,0,0,0,0,0,0,0,0,0,0,0,0,0,-0.0479,-0.0414,-0.0512,-0.0566,-0.0572,-0.0612,-0.0613,-0.0615,-0.0695,-0.0696,-0.0698,-0.0699,-0.0825,-0.0829,-0.0833,-0.0835,0,0,-0.0846,-0.0847,0,0,0,0,0,0,0,0,-0.0475,-0.0482,-0.0557,-0.0562,-0.0569,-0.0642,-0.0626,-0.069,-0.0695,-0.0649,-0.0698,-0.0699,-0.0767,-0.0776,-0.0792,-0.0841,-0.0846,-0.0846,-0.0848,-0.085,-0.0851,0,0,0,0,0,0,0,-0.047,-0.0478,-0.0552,-0.0558,-0.0565,-0.0593,-0.0603,-0.0638,-0.0701,-0.0653,-0.0659,-0.0669,-0.0771,-0.0788,-0.0796,-0.0848,-0.0846,-0.0849,-0.0852,-0.0854,-0.0936,-0.0936,0,0,0,0,0,0,-0.0454,-0.0474,-0.0549,-0.0555,-0.0523,-0.0593,-0.0605,-0.0618,-0.07,-0.0713,-0.0668,-0.0672,-0.0781,-0.0791,-0.0801,-0.0824,-0.085,-0.0854,-0.0856,-0.0936,-0.0936,-0.0936,0,0,0,0,0,0,-0.0452,-0.046,-0.0545,-0.0516,-0.0529,-0.0594,-0.0607,-0.0619,-0.065,-0.0711,-0.0725,-0.0688,-0.0782,-0.0795,-0.084,-0.0829,-0.0856,-0.086,-0.0937,-0.0936,-0.0936,-0.0859,0,0,0,0,0,0,-0.0449,-0.0459,-0.0471,-0.0515,-0.053,-0.0565,-0.0606,-0.062,-0.0653,-0.0661,-0.0732,-0.0745,-0.0784,-0.0833,-0.0844,-0.0835,-0.0863,-0.0937,-0.0937,-0.0936,-0.0861,-0.0856,-0.0851,0,0,0,0,0,-0.0445,-0.045,-0.0471,-0.0481,-0.0542,-0.0565,-0.0574,-0.0625,-0.0653,-0.0659,-0.0712,-0.0743,-0.0838,-0.0836,-0.0849,-0.0841,-0.0937,-0.0937,-0.0936,-0.0864,-0.0857,-0.0851,0,0,0,0,0,0,-0.0417,-0.046,-0.0484,-0.0505,-0.0532,-0.0578,-0.0593,-0.0624,-0.0671,-0.0683,-0.0744,-0.076,-0.0793,-0.0828,-0.0825,-0.0864,-0.0891,-0.0893,-0.0832,-0.0826,-0.082,-0.0797,-0.0866,0,0,0,0,0,-0.0414,-0.0432,-0.047,-0.0488,-0.0498,-0.0546,-0.0566,-0.0593,-0.0636,-0.0659,-0.071,-0.076,-0.0797,-0.0821,-0.086,-0.0882,-0.0888,-0.0884,-0.0879,-0.0874,-0.0864,-0.0875,-0.0869,-0.0934,-0.0934,-0.0934,0,0,-0.0409,-0.0436,-0.0447,-0.0483,-0.051,-0.0513,-0.0561,-0.0582,-0.0591,-0.0664,-0.0699,-0.0745,-0.0799,-0.0824,-0.0841,-0.0855,-0.0853,-0.0873,-0.0868,-0.0861,-0.0874,-0.0867,-0.0861,-0.0934,-0.0934,-0.0934,0,0,-0.0392,-0.0427,-0.0429,-0.0446,-0.0478,-0.0498,-0.0501,-0.0545,-0.0573,-0.0606,-0.0658,-0.0696,-0.076,-0.0791,-0.0815,-0.0803,-0.0824,-0.0818,-0.0772,-0.0783,-0.0777,-0.0772,-0.0739,-0.0732,-0.0815,-0.0814,-0.0814,0,-0.0386,-0.0396,-0.0432,-0.0433,-0.0442,-0.0484,-0.0476,-0.0503,-0.0559,-0.0573,-0.0609,-0.0689,-0.0741,-0.076,-0.076,-0.0789,-0.0785,-0.079,-0.0773,-0.0769,-0.0765,-0.0733,-0.0726,-0.0811,-0.0811,-0.0811,-0.0812,0,-0.0361,-0.0375,-0.0374,-0.0387,-0.0396,-0.0397,-0.0426,-0.0441,-0.0479,-0.051,-0.0547,-0.0615,-0.0662,-0.0682,-0.0723,-0.072,-0.0719,-0.0763,-0.0783,-0.0753,-0.0722,-0.0716,-0.0805,-0.0807,-0.0808,-0.0809,0,0,-0.0332,-0.0352,-0.0355,-0.0352,-0.0372,-0.0371,-0.0373,-0.0384,-0.0379,-0.0442,-0.0441,-0.0519,-0.0559,-0.0589,-0.0641,-0.0654,-0.0624,-0.0693,-0.0695,-0.0647,-0.0609,-0.0529,-0.0515,-0.0665,-0.0665,-0.0664,-0.0584,0,-0.0304,-0.029,-0.031,-0.029,-0.028,-0.0307,-0.0301,-0.0316,-0.0341,-0.0349,-0.0416,-0.0445,-0.0522,-0.0542,-0.0567,-0.0615,-0.061,-0.0639,-0.0656,-0.0656,-0.0579,-0.0507,-0.0563,-0.049,-0.0579,-0.0578,-0.0577,0,-0.027,-0.0266,-0.0243,-0.0236,-0.0233,-0.0226,-0.021,-0.0212,-0.0228,-0.0249,-0.0285,-0.034,-0.0375,-0.0446,-0.0495,-0.0509,-0.0547,-0.0581,-0.058,-0.0529,-0.0566,-0.0543,-0.0476,-0.0568,-0.0568,-0.0569,-0.057,0,-0.022,-0.0218,-0.0196,-0.0196,-0.0192,-0.0184,-0.0181,-0.0185,-0.0174,-0.0186,-0.0173,-0.0235,-0.0259,-0.0325,-0.0401,-0.0451,-0.0424,-0.0509,-0.0461,-0.0455,-0.0516,-0.0516,-0.0523,-0.0524,-0.0524,-0.0524,-0.0524,0,-0.0174,-0.016,-0.0174,-0.0161,-0.0126,-0.0142,-0.0104,-0.0105,-0.0094,-0.0057,-0.0126,-0.0095,-0.0235,-0.0246,-0.0332,-0.0343,-0.0371,-0.0418,-0.0424,-0.0486,-0.0484,-0.0582,-0.059,-0.0521,-0.0522,-0.0522,-0.0523,0,-0.012,-0.0133,-0.0108,-0.0106,-0.0103,-0.0079,-0.0059,-0.0027,-0.0022,0.0032,0.0031,0.0013,0.0018,-0.0074,-0.0149,-0.0234,-0.027,-0.0268,-0.0298,-0.0308,-0.0313,-0.0318,-0.0216,-0.0213,-0.021,-0.0207,-0.0205,0,-0.0091,-0.0073,-0.0064,-0.005,-0.0052,-0.0026,-0.0001,0.0006,0.0049,0.0114,0.0157,0.0179,0.025,0.021,0.0034,-0.0046,-0.0107,-0.0147,-0.0264,-0.0262,-0.0279,-0.0289,-0.0298,-0.0313,-0.0312,-0.0311,-0.031,0,-0.0031,-0.0034,-0.0011,0.0014,0.0034,0.0071,0.0106,0.0159,0.0192,0.0276,0.0402,0.0476,0.0421,0.0326,0.0206,0.011,-0.0144,-0.0127,-0.0123,-0.0366,-0.0343,-0.0363,-0.0371,-0.0303,-0.0303,-0.0304,-0.0304,-0.0305,0.0011,0.004,0.006,0.0088,0.0111,0.0168,0.022,0.0302,0.042,0.0551,0.0589,0.0685,0.0518,0.0373,0.0234,0.0011,-0.0008,-0.0136,-0.0144,-0.0152,-0.0161,-0.0132,-0.0052,-0.0052,-0.0051,-0.005,-0.005,0,0.0069,0.0093,0.0128,0.0165,0.0203,0.0192,0.0292,0.0395,0.0574,0.0664,0.0796,0.068,0.0599,0.0418,0.0082,-0.006,-0.0151,-0.0099,-0.0225,-0.0232,-0.0238,-0.0257,-0.0171,-0.0171,-0.0171,-0.0171,0,0,0.0102,0.0155,0.0174,0.024,0.0253,0.0311,0.0373,0.0573,0.0677,0.0832,0.0833,0.0857,0.063,0.0381,0.016,-0.0014,-0.0086,-0.0044,0.0055,-0.0078,-0.0081,-0.0265,-0.0301,0,0,0,0,0]}],[{"header":{"parameterUnit":"m.s-1","parameterCategory":2,"la1":30.2991,"la2":30.254,"lo1":-89.0895,"lo2":-89.0444,"dy":0.0017,"dx":0.0017,"nx":28,"ny":28,"refTime":"2023-10-22T03:00:00:Z","depth":"4","parameterNumber":2,"parameterNumberName":"U-component_of_CURRENTS"},"data":[0,0,0,0,0,0,0,0,0,0,0,0,0,0,0,0,0,0,0,0,0,0,0,0,0,0,0,0,0,0,0,0,0,0,0,0,0,0,0,0,0,0,0,0,0,0,0,0,0,0,0,0,0,0,0,0,0,0,0.0061,0.0061,0,0.0036,0.0036,0.0035,0.0103,0.0106,0.0108,0.011,0.0256,0.0257,0.0259,0,0,0,0,0,0,0,0,0,0,0,0,0,0.008,0.008,0.0061,0.0061,0.0061,0.0036,0.0036,0.0035,0.0103,0.0106,0.0109,0.0111,0.0255,0.0257,0.0259,0,0,0,0,0,0,0,0,0,0,0,0,0,0.0063,0.0079,0.0061,0.0094,0.0097,0.0036,0.0036,0.0035,0.0102,0.0106,0.0109,0.0113,0.0254,0.0257,0.0259,0.0204,0,0,0.0267,0.0268,0,0,0,0,0,0,0,0,0.0064,0.0062,0.0089,0.0092,0.0095,0.0079,0.0096,0.0101,0.0101,0.0097,0.011,0.0114,0.0211,0.0218,0.0199,0.0211,0.0217,0.0267,0.0269,0.027,0.0271,0,0,0,0,0,0,0,0.0065,0.0063,0.0049,0.0089,0.0092,0.008,0.0082,0.0096,0.0136,0.0098,0.0104,0.0104,0.0214,0.0196,0.0204,0.022,0.0267,0.0269,0.0271,0.0272,0.045,0.0453,0,0,0,0,0,0,0.0074,0.0064,0.005,0.0048,0.009,0.0077,0.0079,0.0078,0.0132,0.0143,0.0101,0.0107,0.019,0.02,0.0209,0.0363,0.027,0.0272,0.0274,0.0447,0.045,0.0454,0,0,0,0,0,0,0.0074,0.0072,0.0051,0.0058,0.0055,0.0074,0.0072,0.0076,0.0102,0.0133,0.0148,0.0129,0.0193,0.0206,0.029,0.0362,0.0273,0.0276,0.0443,0.0448,0.0452,0.0534,0,0,0,0,0,0,0.0074,0.0072,0.0082,0.0058,0.0055,0.0053,0.0069,0.0073,0.0095,0.0104,0.016,0.0175,0.0197,0.0287,0.0293,0.0364,0.0278,0.0439,0.0445,0.0451,0.0528,0.0541,0.0553,0,0,0,0,0,0.0075,0.0077,0.0082,0.0081,0.0064,0.0054,0.0051,0.0074,0.0094,0.0109,0.0171,0.0175,0.0331,0.029,0.0297,0.0371,0.0436,0.0443,0.045,0.0522,0.0539,0.0553,0,0,0,0,0,0,0.0089,0.0083,0.0089,0.009,0.0089,0.0068,0.0079,0.0085,0.0133,0.0163,0.0196,0.0215,0.0321,0.0328,0.0282,0.0444,0.0391,0.04,0.0443,0.0459,0.0472,0.045,0.028,0,0,0,0,0,0.0092,0.0089,0.0088,0.0083,0.0093,0.0087,0.0088,0.0104,0.0134,0.0157,0.0216,0.0282,0.0341,0.0388,0.0435,0.0502,0.0478,0.0563,0.0576,0.0586,0.0577,0.0593,0.0605,0.0478,0.0478,0.0477,0,0,0.0092,0.0086,0.0086,0.0085,0.0085,0.0108,0.0098,0.0113,0.0149,0.0166,0.0268,0.0323,0.0368,0.0466,0.0515,0.0491,0.0615,0.0595,0.0604,0.0588,0.0602,0.0614,0.0624,0.0483,0.0482,0.0481,0,0,0.009,0.0093,0.0103,0.0114,0.0129,0.0128,0.0144,0.017,0.021,0.0289,0.033,0.0418,0.0516,0.0562,0.0592,0.0693,0.0676,0.0741,0.0794,0.0812,0.0821,0.0829,0.0822,0.0829,0.0754,0.0754,0.0754,0,0.0103,0.0101,0.0103,0.0128,0.0144,0.015,0.0181,0.0205,0.0268,0.0316,0.0352,0.0515,0.0553,0.065,0.0707,0.072,0.0725,0.0729,0.0824,0.0832,0.0838,0.0829,0.0835,0.0759,0.0758,0.0758,0.0758,0,0.0116,0.0127,0.0134,0.0169,0.0196,0.0209,0.0256,0.0314,0.0374,0.0416,0.0552,0.0613,0.0716,0.0755,0.0766,0.0857,0.0843,0.0829,0.0774,0.0855,0.0842,0.0847,0.0766,0.0764,0.0763,0.0762,0,0,0.0104,0.0139,0.0142,0.0174,0.0219,0.0243,0.0316,0.0381,0.0444,0.0551,0.0642,0.0764,0.082,0.0856,0.0895,0.0916,0.0972,0.0911,0.091,0.0884,0.1011,0.088,0.0872,0.0988,0.099,0.0991,0.0984,0,0.0112,0.015,0.0174,0.0232,0.0262,0.0313,0.0379,0.0456,0.0532,0.0631,0.071,0.0817,0.0851,0.092,0.0957,0.097,0.0989,0.0974,0.0953,0.0951,0.0808,0.0874,0.0995,0.0987,0.0988,0.0989,0.0989,0,0.0113,0.0137,0.0197,0.0268,0.0294,0.036,0.0472,0.0529,0.0646,0.0717,0.0836,0.0894,0.0988,0.0981,0.105,0.1052,0.1044,0.1031,0.103,0.0875,0.0829,0.089,0.0997,0.0996,0.0996,0.0995,0.0995,0,0.0092,0.0149,0.0197,0.0225,0.0322,0.0401,0.0465,0.0583,0.0645,0.0778,0.0845,0.0962,0.1031,0.1056,0.105,0.1077,0.106,0.1086,0.0951,0.0941,0.102,0.1011,0.1098,0.1098,0.1098,0.1098,0.1098,0,0.0078,0.0114,0.021,0.025,0.0329,0.0423,0.0532,0.0607,0.073,0.08,0.0905,0.0955,0.1056,0.106,0.1054,0.1001,0.1071,0.0956,0.0933,0.1058,0.1054,0.1023,0.1014,0.1098,0.1098,0.1098,0.1098,0,0.0047,0.0097,0.016,0.0284,0.0325,0.0403,0.0549,0.063,0.0744,0.0833,0.088,0.098,0.0988,0.1007,0.1011,0.0992,0.0942,0.0888,0.099,0.0973,0.0823,0.082,0.0798,0.0793,0.0789,0.0786,0.0783,0,0.0039,0.0066,0.0171,0.0221,0.0295,0.041,0.049,0.0627,0.0705,0.0816,0.0851,0.0893,0.0935,0.0847,0.0861,0.0818,0.0796,0.0788,0.0851,0.0814,0.0795,0.0797,0.0799,0.0777,0.0776,0.0775,0.0774,0,0.002,0.0059,0.0103,0.0191,0.0296,0.0365,0.0495,0.0542,0.0686,0.0787,0.0817,0.0814,0.0792,0.0783,0.0725,0.0693,0.0819,0.0749,0.0759,0.0818,0.0789,0.0774,0.078,0.076,0.0762,0.0764,0.0764,0,0.0008,0.0012,0.0076,0.0155,0.0243,0.031,0.0381,0.0488,0.0568,0.0723,0.0704,0.0722,0.078,0.0708,0.0643,0.0608,0.0635,0.0656,0.0672,0.0687,0.0646,0.0592,0.0482,0,0,0,0,0,0.0001,-0.0003,0.0045,0.0137,0.0216,0.0271,0.0376,0.0457,0.059,0.0606,0.067,0.0639,0.0597,0.0585,0.0526,0.0558,0.0605,0.0486,0.0631,0.0685,0.0701,0.0658,0,0,0,0,0,0,-0.0002,0.0019,0.0019,0.0094,0.0158,0.025,0.0302,0.0394,0.0415,0.0539,0.051,0.0608,0.0553,0.0624,0.0518,0.0514,0.0593,0.0505,0.0503,0.0676,0.0691,0.0703,0.0665,0,0,0,0,0]},{"header":{"parameterUnit":"m.s-1","parameterCategory":2,"la1":30.2991,"la2":30.254,"lo1":-89.0895,"lo2":-89.0444,"dy":0.0017,"dx":0.0017,"nx":28,"ny":28,"refTime":"2023-10-22T03:00:00:Z","depth":"4","parameterNumber":3,"parameterNumberName":"V-component_of_CURRENTS"},"data":[0,0,0,0,0,0,0,0,0,0,0,0,0,0,0,0,0,0,0,0,0,0,0,0,0,0,0,0,0,0,0,0,0,0,0,0,0,0,0,0,0,0,0,0,0,0,0,0,0,0,0,0,0,0,0,0,0,0,0.0464,0.0464,0,0.0466,0.0466,0.0466,0.0532,0.0534,0.0536,0.0538,0.0487,0.0484,0.0481,0,0,0,0,0,0,0,0,0,0,0,0,0,0.0429,0.0429,0.0464,0.0464,0.0464,0.0466,0.0466,0.0466,0.0532,0.0534,0.0537,0.0539,0.0488,0.0484,0.0481,0,0,0,0,0,0,0,0,0,0,0,0,0,0.0436,0.0429,0.0464,0.05,0.0503,0.0466,0.0466,0.0465,0.0531,0.0534,0.0537,0.054,0.0489,0.0485,0.048,0.0391,0,0,0.0465,0.0463,0,0,0,0,0,0,0,0,0.0436,0.0437,0.0494,0.0497,0.0501,0.0504,0.0435,0.0439,0.0531,0.0518,0.0538,0.0542,0.0487,0.0483,0.0474,0.0389,0.0386,0.0465,0.0462,0.046,0.0459,0,0,0,0,0,0,0,0.0435,0.0437,0.0462,0.0494,0.0498,0.0486,0.049,0.0435,0.0483,0.0519,0.0525,0.0528,0.0489,0.0478,0.0473,0.0386,0.0465,0.0461,0.0458,0.0456,0.0318,0.0318,0,0,0,0,0,0,0.0442,0.0437,0.0462,0.0462,0.0478,0.0484,0.049,0.0498,0.0485,0.0487,0.0526,0.0532,0.0485,0.0478,0.0471,0.0452,0.046,0.0455,0.0453,0.0319,0.0318,0.0317,0,0,0,0,0,0,0.0441,0.0444,0.0462,0.0451,0.0453,0.0483,0.0491,0.0497,0.0521,0.0491,0.0492,0.0549,0.0487,0.0478,0.0455,0.0447,0.0453,0.0449,0.032,0.0319,0.0318,0.0357,0,0,0,0,0,0,0.044,0.0444,0.0465,0.0452,0.0454,0.0461,0.0489,0.0495,0.0518,0.0526,0.0509,0.0507,0.0489,0.0462,0.045,0.0441,0.0445,0.0321,0.0319,0.0318,0.0356,0.0357,0.0357,0,0,0,0,0,0.0439,0.0453,0.0466,0.047,0.0479,0.0461,0.046,0.0489,0.0516,0.0522,0.0519,0.0509,0.0445,0.0458,0.0443,0.0433,0.0322,0.032,0.0318,0.0356,0.0357,0.0357,0,0,0,0,0,0,0.0445,0.0461,0.0475,0.0494,0.0489,0.0474,0.0484,0.0497,0.0497,0.0515,0.0494,0.0488,0.0466,0.0436,0.0451,0.0388,0.0382,0.0377,0.0415,0.0415,0.0416,0.0421,0.0441,0,0,0,0,0,0.0454,0.0474,0.0473,0.0486,0.0486,0.0487,0.049,0.0505,0.0498,0.0505,0.05,0.0478,0.0436,0.0422,0.0388,0.0343,0.031,0.0327,0.0328,0.0328,0.0322,0.0259,0.0254,0.0312,0.0312,0.0312,0,0,0.0459,0.047,0.0482,0.0489,0.0487,0.0485,0.0497,0.0504,0.0508,0.0491,0.0506,0.048,0.0425,0.0392,0.0377,0.0374,0.0298,0.0326,0.0327,0.032,0.0257,0.0251,0.0246,0.031,0.0311,0.0311,0,0,0.0467,0.0486,0.0506,0.0499,0.0506,0.0499,0.0507,0.0511,0.0525,0.0513,0.0505,0.0482,0.0431,0.0396,0.0363,0.0336,0.0305,0.0328,0.0331,0.0271,0.0266,0.0261,0.0233,0.0226,0.0326,0.0327,0.0327,0,0.0479,0.0494,0.0504,0.0509,0.0508,0.0509,0.0514,0.0507,0.051,0.0504,0.0529,0.0454,0.0427,0.0355,0.036,0.0338,0.031,0.0337,0.0273,0.0267,0.0261,0.0234,0.0225,0.0328,0.0328,0.0328,0.0328,0,0.0491,0.0504,0.0504,0.0518,0.052,0.0513,0.051,0.0515,0.053,0.0521,0.0486,0.045,0.0407,0.039,0.0367,0.0306,0.0303,0.0285,0.0276,0.0258,0.023,0.022,0.0331,0.033,0.0329,0.0329,0,0,0.0501,0.0516,0.0516,0.0525,0.0522,0.0523,0.0516,0.0498,0.0491,0.049,0.0467,0.041,0.0407,0.037,0.034,0.029,0.0243,0.0278,0.0274,0.0261,0.0132,0.013,0.0118,0.0214,0.0212,0.0211,0.0137,0,0.0503,0.0522,0.0527,0.0534,0.0537,0.0527,0.0517,0.0507,0.0493,0.0472,0.0423,0.0395,0.0391,0.0379,0.0327,0.0253,0.0214,0.0266,0.0142,0.0139,0.0146,0.0105,0.0204,0.0129,0.0127,0.0125,0.0124,0,0.0505,0.0519,0.0545,0.0541,0.0543,0.0563,0.0547,0.0533,0.0483,0.047,0.0429,0.0397,0.0328,0.0335,0.0208,0.0243,0.0197,0.0146,0.0141,0.0115,0.0116,0.0143,0.0105,0.0106,0.0108,0.0109,0.011,0,0.0511,0.0519,0.0549,0.0549,0.0556,0.058,0.0582,0.0551,0.0535,0.0482,0.0465,0.0376,0.0348,0.0254,0.0167,0.0185,0.0024,0.0034,-0.001,-0.0009,0.0001,0.0007,-0.0053,-0.0053,-0.0053,-0.0052,-0.0052,0,0.0496,0.051,0.0571,0.0587,0.0606,0.0619,0.0629,0.0601,0.0575,0.054,0.0486,0.043,0.0327,0.0227,0.0147,0.003,0.0009,-0.0022,-0.0042,0.0023,0.0031,-0.0005,0.0002,-0.0055,-0.0054,-0.0054,-0.0053,0,0.0487,0.0521,0.0555,0.0604,0.0618,0.0648,0.0671,0.0666,0.0642,0.0596,0.0585,0.0473,0.0338,0.0225,0.0064,0.0019,-0.0105,-0.0134,-0.0049,-0.006,-0.0084,-0.0074,-0.0187,-0.0188,-0.0188,-0.0189,-0.019,0,0.0479,0.0505,0.0578,0.0612,0.065,0.0692,0.0706,0.07,0.0688,0.0603,0.0571,0.0453,0.0365,0.013,0.0016,-0.0142,-0.015,-0.0187,-0.014,-0.0096,-0.0104,-0.0093,-0.0083,-0.0191,-0.0191,-0.0191,-0.0192,0,0.0456,0.0506,0.0537,0.0617,0.0676,0.0686,0.0717,0.0708,0.0677,0.067,0.054,0.0424,0.0272,0.0108,-0.0007,-0.0123,-0.0158,-0.0195,-0.0193,-0.0149,-0.0103,-0.0108,-0.0097,-0.0195,-0.0194,-0.0194,-0.0194,0,0.0446,0.046,0.0533,0.0588,0.0644,0.0657,0.0678,0.0663,0.0642,0.0576,0.0522,0.0364,0.0287,0.0115,-0.0016,-0.0112,-0.0115,-0.0114,-0.0116,-0.0114,-0.0068,0.0003,-0.0089,0,0,0,0,0,0.0419,0.0431,0.0491,0.0552,0.061,0.0644,0.0656,0.0675,0.0661,0.0577,0.0555,0.0406,0.0217,0.0114,0.0016,-0.002,-0.0128,-0.0134,-0.0127,-0.0211,-0.0207,-0.0166,0,0,0,0,0,0,0.0408,0.045,0.047,0.0503,0.0546,0.0595,0.0603,0.0608,0.0553,0.0534,0.0419,0.0405,0.0204,0.0271,0.0017,-0.0013,-0.0015,-0.0215,-0.0216,-0.0213,-0.021,-0.0207,-0.0163,0,0,0,0,0]}]]